Wainwright, AK

4:45 AM AKDT on October 17, 2017 (GMT -0800)
Wainwright

Weather History for PAWI - February, 2014

Change the Weather History Date:

Thursday, February 13, 2014

  Actual Average (PABR) Record (PABR)
Temperature  
Mean Temperature -34 °F -  
Max Temperature -29 °F -10 °F 30 °F (1959)
Min Temperature -38 °F -20 °F -44 °F (1964)
Degree Days  
Heating Degree Days 98    
Moisture  
Dew Point -36 °F    
Average Humidity 69    
Maximum Humidity 69    
Minimum Humidity 69    
Precipitation  
Precipitation 0.00 in - - ()
Sea Level Pressure  
Sea Level Pressure 30.06 in    
Wind  
Wind Speed 5 mph (NE)    
Max Wind Speed 12 mph    
Max Gust Speed -    
Visibility 10 miles    
Events Rain    
Averages and records for this station are not official NWS values.
T = Trace of Precipitation, MM = Missing Value Source: NWS Daily Summary

Daily Weather History Graph

Daily Weather History Graph

Search for Another Location

Airport or City:

Trip Planner

Search our weather history database for the weather conditions in past years. The results will help you decide how hot, cold, wet, or windy it might be!

Date:

Astronomy

Feb. 13, 2014 Rise Set
Actual Time 10:27 AM AKST 5:22 PM AKST
Civil Twilight 9:14 AM AKST 6:35 PM AKST
Nautical Twilight 7:59 AM AKST 7:50 PM AKST
Astronomical Twilight 6:47 AM AKST 9:03 PM AKST
Moon 4:46 PM AKST (2/13) 9:30 AM AKST (2/13)
Length of Visible Light 9h 21m
Length of Day
6h 54m
Waxing Gibbous, 99% of the Moon is Illuminated
Feb 13
Waxing Gibbous
Feb 14
Full
Feb 22
Last Quarter
Feb 28
New
Mar 8
First Quarter

Hourly Weather History & Observations

Time (AKST) Temp. Windchill Dew Point Humidity Pressure Visibility Wind Dir Wind Speed Gust Speed Precip Events Conditions
12:53 AM -36.0 °F - - N/A% 30.05 in 8.0 mi Calm Calm - N/A   Clear
1:53 AM -38.0 °F -58.7 °F - N/A% 30.05 in 10.0 mi ENE 6.9 mph - N/A   Clear
2:53 AM -36.0 °F -54.3 °F - N/A% 30.05 in 10.0 mi ENE 5.8 mph - N/A   Clear
3:53 AM -38.9 °F -52.3 °F - N/A% 30.05 in 10.0 mi ENE 3.5 mph - 0.00 in   Clear
4:53 AM -38.9 °F -52.3 °F - N/A% 30.04 in 10.0 mi East 3.5 mph - 0.00 in   Clear
5:53 AM -38.0 °F -51.3 °F - N/A% 30.04 in 10.0 mi ENE 3.5 mph - N/A   Clear
6:53 AM -36.0 °F - - N/A% 30.05 in 10.0 mi Calm Calm - N/A   Clear
7:53 AM -34.1 °F - - N/A% 30.05 in 10.0 mi Calm Calm - 0.00 in   Clear
8:53 AM -36.0 °F -49.0 °F - N/A% 30.05 in 10.0 mi NE 3.5 mph - 0.00 in   Clear
9:53 AM -33.0 °F -54.3 °F - N/A% 30.04 in 10.0 mi NE 8.1 mph - 0.00 in   Clear
10:53 AM -36.9 °F -63.4 °F - N/A% 30.05 in 10.0 mi ENE 11.5 mph - 0.00 in   Clear
11:53 AM -35.0 °F -59.7 °F - N/A% 30.06 in 10.0 mi ENE 10.4 mph - 0.00 in   Clear
12:53 PM -35.0 °F -56.8 °F - N/A% 30.05 in 10.0 mi ENE 8.1 mph - 0.00 in   Clear
1:53 PM -34.1 °F -52.0 °F - N/A% 30.06 in 10.0 mi ENE 5.8 mph - 0.00 in   Clear
2:53 PM -33.0 °F -52.7 °F - N/A% 30.06 in 10.0 mi ENE 6.9 mph - 0.00 in   Clear
3:53 PM -32.1 °F -51.6 °F - N/A% 30.06 in 10.0 mi ENE 6.9 mph - 0.00 in   Clear
4:53 PM -33.0 °F -54.3 °F - N/A% 30.06 in 9.0 mi NE 8.1 mph - 0.00 in   Clear
5:53 PM -34.1 °F -49.7 °F - N/A% 30.07 in 10.0 mi ENE 4.6 mph - 0.00 in   Clear
6:53 PM -33.0 °F -54.3 °F - N/A% 30.08 in 10.0 mi NE 8.1 mph - 0.00 in   Clear
7:53 PM -32.1 °F -54.7 °F - N/A% 30.08 in 10.0 mi NNE 9.2 mph - 0.00 in   Clear
8:53 PM -31.0 °F -51.9 °F - N/A% 30.07 in 10.0 mi NE 8.1 mph - 0.00 in   Clear
9:22 PM -29.2 °F -51.2 °F - N/A% 30.06 in 10.0 mi NE 9.2 mph - 0.00 in Rain Light Freezing Rain
9:37 PM -29.2 °F -52.5 °F - N/A% 30.06 in 10.0 mi NE 10.4 mph - 0.00 in   Clear
9:53 PM -29.0 °F -52.3 °F -36.0 °F 69% 30.07 in 10.0 mi NE 10.4 mph - 0.00 in   Clear
10:53 PM -33.0 °F -55.9 °F - N/A% 30.08 in 10.0 mi ENE 9.2 mph - 0.00 in   Clear
11:53 PM -29.9 °F -52.1 °F - N/A% 30.08 in 10.0 mi ENE 9.2 mph - N/A   Clear